Location: Pine Mountain Observatory
(43.7910°N, 120.9377°W)
Time: 10:29:11

APEX - Visible Passes

Search period start: 18 March 2018 00:00
Search period end: 28 March 2018 00:00
Orbit: 331 x 1172 km, 69.9° (Epoch: 17 March)

Date Brightness Start Highest point End Pass type
(mag) Time Alt. Az. Time Alt. Az. Time Alt. Az.
18 Mar 6.0 20:54:47 10° NW 20:59:13 25° W 21:02:53 10° SSW visible
19 Mar 4.9 20:12:01 10° NW 20:17:21 46° WSW 20:21:30 10° S visible
21 Mar 6.4 20:30:53 10° NW 20:34:17 18° W 20:37:13 10° SW visible
22 Mar 5.7 19:47:44 10° NW 19:52:27 33° WSW 19:56:14 10° SSW visible
24 Mar 7.0 20:07:22 10° WNW 20:09:10 12° W 20:10:49 10° WSW visible
